Regional Weather Roundup
Issued by NWS

Home | Current Version | Previous Version | Text Only | Print | Product List | Glossary Off
Versions: 1 2 3 4 5 6 7 8 9 10 11 12 13 14 15 16 17 18 19 20 21 22 23 24 25 26 27 28 29 30 31 32 33 34 35 36 37 38 39 40 41 42 43 44 45 46 47 48 49 50

000
ASUS43 KMPX 291010
RWRMN
WEATHER ROUNDUP FOR MINNESOTA
NATIONAL WEATHER SERVICE TWIN CITIES/CHANHASSEN MN
500 AM CDT THU JUN 29 2017


NOTE: "FAIR" INDICATES FEW OR NO CLOUDS BELOW 12,000 FEET WITH NO
SIGNIFICANT WEATHER AND/OR OBSTRUCTIONS TO VISIBILITY. N/A MEANS
CURRENT SKY AND/OR WEATHER CONDITIONS ARE NOT AVAILABLE.

MNZ060>063-068>070-291100-
   Twin Cities Metro

CITY           SKY/WX    TMP DP  RH WIND       PRES   REMARKS
TWIN CITIES    MOCLDY    66  59  78 W9        29.67R
ST PAUL        CLOUDY    66  61  84 W13       29.67R
CRYSTAL        CLOUDY    65  57  75 W9        29.67R
BLAINE         MOCLDY    66  61  82 W10       29.67R
LAKEVILLE      CLEAR     61  61 100 W6        29.68S
EDEN PRAIRIE   PTCLDY    64  59  83 W9        29.67R
SOUTH ST PAUL  MOCLDY    66  59  77 W8        29.67R
LAKE ELMO      CLOUDY    64  59  82 W9        29.67R
$$
MNZ001>005-007-008-013>017-022>024-027-028-291100-
   Northwest Minnesota

CITY           SKY/WX    TMP DP  RH WIND       PRES   REMARKS
BEMIDJI        CLOUDY    58  57  97 W7        29.70R
HALLOCK        FOG       54  52  94 CALM      29.73R VSB 1/2
ROSEAU         HAZE      55  52  88 CALM      29.73R VSB 1/2
WARROAD        CLOUDY    55  52  88 NW7       29.72S
THIEF RVR FALL CLOUDY    59  58  96 N7        29.74R
CROOKSTON      CLEAR     57  57 100 N3        29.74R
FOSSTON        CLOUDY    57  57 100 N7        29.73R FOG
DETROIT LAKES  CLOUDY    61  59  94 N8        29.74R
MOORHEAD       CLOUDY    61  57  88 N6        29.74S
PARK RAPIDS    CLOUDY    61  56  83 NW10      29.71R
MAHNOMEN       CLOUDY    58  58  99 NW5       29.73R
$$
MNZ006-009>011-018-025>026-291100-
   North Central Minnesota

CITY           SKY/WX    TMP DP  RH WIND       PRES   REMARKS
BAUDETTE       CLOUDY    58  58 100 N7        29.69R
FLAG ISLAND    CLOUDY    61  57  88 N7        29.70S
INTL FALLS     CLOUDY    60  57  89 N5        29.67R
WASKISH        CLOUDY    59  57  94 NW5       29.69S FOG
BIG FORK       CLOUDY    59  57  94 N5        29.66R
LONGVILLE      CLOUDY    61  57  88 NW6       29.67R
GRAND RAPIDS   CLOUDY    59  58  96 NW10      29.66R
CRANE LAKE     LGT RAIN  55  55 100 N5        29.65S
ORR            DRIZZLE   57  54  88 NW3       29.62S
COOK           DRIZZLE   57  57 100 N6        29.63S
WALKER         CLOUDY    59  57  93 NW7       29.69R
$$
MNZ012-019>021-037-291100-
   Northeast Minnesota

CITY           SKY/WX    TMP DP  RH WIND       PRES   REMARKS
DULUTH         DRIZZLE   59  59 100 NW9       29.58R
ELY            DRIZZLE   57  55  94 N3        29.59S
HIBBING        CLOUDY    58  58 100 N12       29.60F
EVELETH        CLOUDY    58  55  90 N7        29.61S FOG
DULUTH HARBOR  CLOUDY    55  54  94 SW5       29.57R
TWO HARBORS    DRIZZLE   63  57  82 CALM      29.54S
SILVER BAY     RAIN      59  57  94 CALM      29.54R
GRAND MARAIS     N/A     48  48 100 NE10      29.52S
G MARAIS ARPRT DRIZZLE   55  52  88 N14       29.57R
$$
MNZ029>031-032-039>041-046>048-054>057-064-291100-
   West Central Minnesota

CITY           SKY/WX    TMP DP  RH WIND       PRES   REMARKS
FERGUS FALLS   CLOUDY    61  61 100 NW6       29.72R
WHEATON        CLOUDY    61  59  94 NW3       29.74F FOG
MORRIS         CLOUDY    63  61  94 NW12      29.72S
ALEXANDRIA     CLOUDY    62  59  90 NW7       29.73S
ELBOW LAKE     CLOUDY    61  59  94 N6        29.73S
WADENA         CLOUDY    61  57  88 NW7       29.70F
GLENWOOD       CLOUDY    61  59  94 NW7       29.73R
APPLETON       CLOUDY    63  59  88 N13       29.70F
BENSON         CLOUDY    61  59  94 N6        29.73F
ORTONVILLE     CLOUDY    61  59  94 N8        29.71F
MADISON        MOCLDY    63  63 100 NW6       29.71S
WILLMAR        FAIR      59  57  94 NW6       29.72F
$$
MNZ033>034-036-042>043-049>051-058-059-291100-
   Central Minnesota

CITY           SKY/WX    TMP DP  RH WIND       PRES   REMARKS
ST CLOUD       CLOUDY    63  59  87 NW13      29.69R
SAUK CENTRE    CLOUDY    61  58  91 W5        29.72R
PAYNESVILLE    CLOUDY    61  61 100 W3        29.72S
AITKIN         CLOUDY    59  57  94 NW5       29.64R
PINE RIVER     CLOUDY    61  59  94 MISG      29.72R
BRAINERD       CLOUDY    61  59  93 NW8       29.67R
STAPLES        CLOUDY    61  57  88 NW8       29.69S
LONG PRAIRIE   CLOUDY    59  57  94 W8        29.71S
LITTLE FALLS   CLOUDY    61  55  82 NW8       29.69R
LITCHFIELD     CLEAR     63  61  94 W3        29.71R
BUFFALO        CLOUDY    64  57  80 W9        29.71R
MAPLE LAKE     CLOUDY    64  60  86 NW6       29.71R
HUTCHINSON     CLEAR     60  59  96 W7        29.71S
$$
MNZ037-044-045-052-053-291100-
   East Central Minnesota

CITY           SKY/WX    TMP DP  RH WIND       PRES   REMARKS
PRINCETON      CLOUDY    64  61  88 W9        29.67R
MORA           MOCLDY    59  54  82 NW13      29.65R
CAMBRIDGE      CLOUDY    64  57  77 W8        29.64R
RUSH CITY      CLOUDY    63  59  88 W5        29.64R
MOOSE LAKE     CLOUDY    59  55  88 NW5       29.60R
HINCKLEY       CLOUDY    61  59  94 NW7       29.62R
CLOQUET        CLOUDY    59  57  94 NW10      29.59R FOG
MCGREGOR       CLOUDY    59  57  94 NW10      29.63S
$$
MNZ071>073-080-081-089-090-097-098-291100-
   Southwest Minnesota

CITY           SKY/WX    TMP DP  RH WIND       PRES   REMARKS
MONTEVIDEO     CLOUDY    61  61 100 N9        29.69F
GRANITE FALLS  CLEAR     61  60  96 NW6       29.71F
CANBY          CLEAR     57  55  94 CALM      29.73R
MARSHALL       PTCLDY    57  56  96 W8        29.73R
REDWOOD FALLS  CLEAR     60  58  92 CALM      29.69F
OLIVIA         CLEAR     59  55  88 NW6       29.69F
PIPESTONE      PTCLDY    61  55  82 CALM      29.74S
WINDOM         CLOUDY    57  55  94 SW3       29.73R
WORTHINGTON    CLOUDY    58  57  97 SW3       29.76R
JACKSON        CLEAR     59  59 100 CALM      29.76R
TRACY          PTCLDY    61  60  95 W3        29.73R
SLAYTON        PTCLDY    56  55  95 CALM      29.74R
$$
MNZ065>067-074>077-082>085-091>093-291100-
   South Central Minnesota

CITY           SKY/WX    TMP DP  RH WIND       PRES   REMARKS
MANKATO        CLEAR     61  59  93 W8        29.71S
NEW ULM        CLEAR     59  57  94 NW3       29.69F
ST JAMES       CLEAR     59  57  94 NW3       29.70F
FAIRMONT       CLEAR     60  58  92 W3        29.74R
GLENCOE        CLEAR     61  61  99 W7        29.69S
FARIBAULT      PTCLDY    63  61  94 W5        29.70S
OWATONNA       CLEAR     61  59  94 W3        29.70S
WASECA         CLEAR     55  55 100 W6        29.72S
ALBERT LEA     CLEAR     63  61  94 SW3       29.71S
$$
MNZ078>079-086>088-094>096-291100-
   Southeast Minnesota

CITY           SKY/WX    TMP DP  RH WIND       PRES   REMARKS
ROCHESTER      CLEAR     61  60  97 W8        29.69F
RED WING       CLOUDY    64  57  77 W9        29.65R
STANTON        CLEAR     62  58  86 W3        29.67S
DODGE CENTER   CLEAR     61  57  88 W7        29.69F
WINONA         CLEAR     66  59  77 W6        29.66S
AUSTIN         CLEAR     61  57  88 CALM      29.70S
PRESTON        CLEAR     61  58  91 W7        29.70F
$$
ABBREVIATIONS USED IN REMARKS
   TC - TEMPERATURES IN CELSIUS
  WCI - WIND CHILL INDEX
   HX - HEAT INDEX
  VSB - VISIBILITY
$$



USA.gov is the U.S. government's official web portal to all federal, state and local government web resources and services.